Race Coverage Navigation

TS # 6 / Congress, AZ  2019

 


TS STATS
TS Distance 52.63 
Total Distance 395.09 
Miles To Go 2675.19 
TS Climbing 395 
Total Climbing
TS  Elevation
TS  Net Elevation 636 
Map Filename Open Map 
Directions Filename  
Latitude 34.16 
Longitude -112.85 
Google Map  TimeStation Map 


TS Arrival Data
Arr Ord  #/Name Arrival DT TS Dst Avg This TS Avg Overall
 1 R404 - Team Viasat - Carlsbad  06/12/2019 8:35 52.63  21.63  22.47 
 2 R403 - Team Viasat-Denver  06/12/2019 9:45 52.63  20.51  21.09 
 3 R401 - San Diego Sports Medicine/Zoca  06/12/2019 11:38 52.63  18.91  19.19 
 4 R205 - Team OB2  06/12/2019 12:16 52.63  20.24  18.7 
 5 R200 - EY Legacy Builders 2019  06/12/2019 12:16 52.63  16.98  18.75 
 6 377 - Christoph Strasser  06/12/2019 12:21 52.63  21.05  20.06 
 7 R400 - HTX Velo Femme  06/12/2019 12:37 52.63  18.8  18.33 
 8 279 - Marko Baloh  06/12/2019 14:11 52.63  15.63  18.33 
 9 R402 - SUWOS  06/12/2019 14:18 52.63  15.48  16.98 
 10 R201 - IN OUR PRIME  06/12/2019 14:46 52.63  15.48  16.75 
 11 612 - Markus K. Brandl  06/12/2019 15:03 52.63  15.71  17.37 
 12 617 - SOLO.kiwi (Craig Harper)  06/12/2019 15:04 52.63  15.71  17.3 
 13 R111 - Jennifer Orr  06/12/2019 15:07 52.63  15.95  16.58 
 14 R51 - Fabio Silvestri  06/12/2019 15:21 52.63  17.16  16.65 
 15 R203 - Mike 'n' Jay Giretto con Amici  06/12/2019 15:27 52.63  15.11  16.26 
 16 R124 - Andres Rodriguez  06/12/2019 15:33 52.63  14.9  16.3 
 17 R202 - Laureus Alegra  06/12/2019 15:50 52.63  12.78  16.02 
 18 442 - Joe Barr  06/12/2019 15:51 52.63  14.83  16.93 
 19 609 - Jakob Olsen  06/12/2019 15:54 52.63  14.42  16.78 
 20 329 - Peter Oyler  06/12/2019 16:07 52.63  17.74  16.8 
 21 349 - Mark Pattinson  06/12/2019 16:19 52.63  15.18  16.65 
 22 529 - Isa Pulver  06/12/2019 16:37 52.63  14.55  16.1 
 23 288 - Dave Haase  06/12/2019 16:38 52.63  14.35  16.45 
 24 R209 - Workhorses  06/12/2019 16:44 52.63  14.49  15.4 
 25 603 - Alan Bradley  06/12/2019 16:51 52.63  13.73  16.15 
 26 623 - Ultra Paka Racing Team (Daniel Polman)  06/12/2019 16:56 52.63  16.11  15.94 
 27 622 - Thomas Odom-Team Kyle Pease Foundation  06/12/2019 16:56 52.63  14.1  15.95 
 28 620 - Team Jefferson (Allan Jefferson)  06/12/2019 17:10 52.63  17.74  15.82 
 29 594 - Mauerhofer Thomas  06/12/2019 17:54 52.63  13.44  15.48 
 30 R207 - We Might Make It!  06/12/2019 18:32 52.63  12.84  14.4 
 31 416 - Leah Goldstein  06/12/2019 18:59 52.63  11.12  14.7 
 32 604 - Chieko Ozawa  06/12/2019 19:30 52.63  13.21  14.39 
 33 568 - Alexandra Meixner  06/12/2019 19:31 52.63  10.85  14.39 
 34 615 - Philipp Amhof  06/12/2019 19:36 52.63  12.53  14.45 
 35 R104 - Team everve Christian (Christian Beichel)  06/12/2019 20:10 52.63  11.08  13.79 
 36 R122 - Kirk Gentle  06/12/2019 20:24 52.63  13.73  13.6 
 37 539 - Kari Rouvinen  06/12/2019 20:40 52.63  10.93  14 
 38 559 - Team Martin RAAM 2019 (Martin Bergmeister)  06/12/2019 20:46 52.63  10.06  13.94 
 39 161 - Seana Hogan  06/12/2019 21:09 52.63  7.82  13.62 
 40 R121 - Ironmae (Rosecler Costa)  06/12/2019 21:33 52.63  7.7  13.03 
 41 621 - Themsen Ultracycling (Jacob Themsen)  06/12/2019 21:34 52.63  7.68  13.45 
 42 R106 - Damaceleste.com (Valentina Tanzi)  06/12/2019 21:40 52.63  7.65  13.02 
 43 605 - Christian Echavarria  06/12/2019 21:45 52.63  12.68  13.45 
 44 608 - Elin Starup  06/12/2019 22:02 52.63  9.81  13.16 
 45 R84 - James Jason Ingels  06/12/2019 22:25 52.63  18.8  12.82 
 46 R115 - Kym Louie  06/12/2019 22:36 52.63  10.63  12.61 
 47 399 - Valerio Zamboni  06/12/2019 23:03 52.63  8.49  12.96 
 48 618 - GREGORY ROBINSON  06/12/2019 23:37 52.63  6.17  12.58 
 49 411 - Geoff Brunner  06/12/2019 23:39 52.63  7.78  12.7 
 50 367 - Daniela Genovesi  06/12/2019 23:48 52.63  9.81  12.47 
 51 R120 - Team Next Step (Peter Pedersen)  06/12/2019 23:48 52.63  7.65  12.18 
 52 510 - John C. Tarlton  06/13/2019 0:05 52.63  13.61  12.5 
 53 611 - Marcelo Soares " MIXIRICA "  06/13/2019 0:06 52.63  11.92  12.43 
 54 610 - Kabir Rachure  06/13/2019 0:15 52.63  14.55  12.38 
 55 R103 - Chris Davies  06/13/2019 0:23 52.63  8.01  12.03 
 56 R116 - Philippe May  06/13/2019 1:38 52.63  8.33  11.54 
 57 R105 - 2nd Chance Racing (Craig Johnson)  06/13/2019 1:39 52.63  12.73  11.57 
 58 R119 - Team BlueLine (Martha Hall)  06/13/2019 2:06 52.63  7.7  11.34 
 59 R110 - James Golding  06/13/2019 2:33 52.63  12.29  11.26 
 60 607 - Sabine Bird (Team Bean)  06/13/2019 2:54 52.63  11.52  11.33 
 61 563 - Team Nico Ultracycling - In Fight against Cancer   06/13/2019 3:01 52.63  7.43  11.42 
 62 R112 - John Hoopingarner  06/13/2019 3:18 52.63  9.6  11.02 
 63 424 - Team i RON man Veterans supporting Veterans  06/13/2019 4:17 52.63  8.7  11.05 
 64 R117 - ROGIE (Roger Foote)  06/13/2019 5:12 52.63  12.19  10.45 
 65 R114 - Krishna Prakash  06/13/2019 6:33 52.63  8.14  10.1 
 66 R87 - Spoke Life Cycles / TRD (Lucas Spencer)  06/13/2019 6:55 52.63  8.44  10.04 
 67 527 - TALABARDON (Herve Talabardon)  06/13/2019 7:10 52.63  6.59  10.21 
 68 491 - BOURREAU JACQUES  06/13/2019 14:52 52.63  8.51  8.52 
 69 T411 - team alpha - tischlerei groemmer  06/16/2019 8:30 52.63  23.22  23.04 
 70 T800 - Backstedt Racing Project 14  06/16/2019 8:33 52.63  20.91  23.15 
 71 T401 - Data Techniques powered by Networks Centre  06/16/2019 8:33 52.63  21.63  22.75 
 72 T404 - Gentlemen of speed  06/16/2019 9:19 52.63  21.34  21.85 
 73 T201 - EAT WELL  06/16/2019 9:30 52.63  20.24  21.38 
 74 T805 - Team Oceanside  06/16/2019 10:31 52.63  19.14  20.85 
 75 T407 - Julian Becker   06/16/2019 10:41 52.63  19.86  20.37 
 76 T412 - Team Aspect  06/16/2019 10:45 52.63  18.58  20.38 
 77 T200 - AIR RELAX GoPro TEAM BRASIL  06/16/2019 10:59 52.63  16.45  19.77 
 78 T807 - Team ZOE International  06/16/2019 11:09 52.63  19.86  20.21 
 79 T802 - Scorchers  06/16/2019 11:15 52.63  19.86  20.02 
 80 T408 - Radeln-fuer-Kinder (Cycling-for-Kids)  06/16/2019 11:31 52.63  17.26  19.54 
 81 T804 - Team FSHD Skyland Trail  06/16/2019 11:41 52.63  18.36  19.62 
 82 T406 - Operation Walk Midwest  06/16/2019 11:44 52.63  18.47  19.3 
 83 T416 - Team Rotary Raams Polio  06/16/2019 11:48 52.63  18.91  19.4 
 84 T202 - Integra Medical - BAA Racing  06/16/2019 11:50 52.63  16.03  18.99 
 85 T400 - Cantastic4  06/16/2019 11:51 52.63  17.94  19.1 
 86 T418 - The Opportunists  06/16/2019 12:07 52.63  16.62  19.13 
 87 T403 - EKJ Denmark  06/16/2019 12:09 52.63  20.91  18.87 
 88 T808 - Antonia's Friends 2019  06/16/2019 12:17 52.63  16.62  19.12 
 89 T410 - Soap-Aid  06/16/2019 12:23 52.63  15.95  18.77 
 90 T206 - Project Linear Acceleration  06/16/2019 12:31 52.63  16.11  18.45 
 91 T207 - Team Life Time  06/16/2019 13:30 52.63  16.98  17.65 
 92 T803 - Team EndoPark  06/16/2019 13:34 52.63  18.04  17.93 
 93 T415 - TEAM FIRE VELO 935  06/16/2019 13:35 52.63  15.87  17.82 
 94 T204 - Lucan CRC  06/16/2019 13:38 52.63  17.94  17.51 
 95 T405 - High Rollers  06/16/2019 13:39 52.63  17.07  17.64 
 96 T414 - Brazil Nuts  06/16/2019 13:39 52.63  20.11  17.76 
 97 T413 - TEAM BRASIL - SKIPPER  06/16/2019 14:23 52.63  15.4  17.18 
 98 T402 - EA/WFP RAAM Team  06/16/2019 14:44 52.63  15.71  16.79 
 99 T806 - Team SuperMarrow  06/16/2019 14:44 52.63  17.35  17.07 
 100 T417 - Team4RAAM 2019 powered by TGW Living Logistics  06/16/2019 14:55 52.63  15.95  16.84 
 101 T208 - Team Machine  06/16/2019 15:09 52.63  17.84  16.45 
 102 T205 - Prevent Breast Cancer powered by Endomag  06/16/2019 15:31 52.63  16.11  16.17 
 103 T801 - Mind Over Matter  06/16/2019 15:44 52.63  16.71  16.3 
 104 T203 - JPsDuo  06/16/2019 17:23 52.63  14.76  15 
 105 T409 - Serpentine Golden Girls  06/16/2019 17:33 52.63  14.62  15.06 
 106 T210 - Bike Wine Team  06/16/2019 18:12 52.63  15.04  14.61